User: anonymous   Login
Location: Newark
(45.8667°N, 9.7333°E)
Time: 03:22:31
(UTC+00:00)
Language:

Altair - Orbit

View from above orbital plane
View from above orbital plane
View from above satellite
View from above satellite

Ground track
Ground track

The orbit data is extracted from the following two-line orbital elements,

1    50U 60009B   20027.20279262 -.00000087 +00000-0 -23150-4 0  9993
2    50 047.2294 202.7678 0113341 261.6811 097.1114 12.20109008652857
Epoch (UTC): 27 January 2020 04:52:01
Eccentricity: 0.0113341
inclination: 47.2294°
perigee height: 1502 km
apogee height: 1682 km
right ascension of ascending node: 202.7678°
argument of perigee: 261.6811°
revolutions per day: 12.20109008
mean anomaly at epoch: 97.1114°
orbit number at epoch: 65285

The dashed part of the orbit path shows where the satellite is in the earth's shadow,  

DLR